Location: La Brionne
(46.1728°N, 1.7849°E)
Time: 17:31:29
(UTC+00:00)

Cosmos 1544 Rocket - Pass Details

Date: 28 October 2021
Orbit: 603 x 632 km, 82.5° (Epoch: 27 November)

Event Time Altitude Azimuth Distance (km) Brightness Sun altitude
Rises 18:27:32 0° 219° (SW) 2,914 7.6 -18.4°
Reaches altitude 10° 18:30:05 10° 232° (SW) 2,010 6.9 -18.8°
Maximum altitude 18:33:47 25° 289° (WNW) 1,270 5.9 -19.5°
Drops below altitude 10° 18:37:31 10° 345° (NNW) 2,015 6.4 -20.1°
Sets 18:40:05 0° 359° (N) 2,923 7.1 -20.6°
